FW1908 Weather Reports


Display with metric or nautical units.
time (UTC)temp
F
wind
direction
speed
MPH
gust
MPH
rain 1hr
in
rain 24hr
in
rain mn
in
humidity
%
barometer
mb
20260831005654 78 92 0.0 0.0 0.00 0.00 0.00 80 1021.0
20260831005151 78 92 0.0 0.0 0.00 0.00 0.00 80 1020.9
20260831004649 79 92 0.0 0.0 0.00 0.00 0.00 80 1020.8
20260831004151 79 92 0.0 0.0 0.00 0.00 0.00 79 1020.8
20260831003649 79 92 0.0 0.0 0.00 0.00 0.00 79 1020.7
20260831003151 79 92 0.0 0.0 0.00 0.00 0.00 79 1020.7
20260831002918 79 92 0.0 0.0 0.00 0.00 0.00 79 1020.7
20260831002151 80 92 0.0 0.0 0.00 0.00 0.00 78 1020.6
20260831001650 80 92 0.0 0.0 0.00 0.00 0.00 77 1020.6
20260831001151 80 92 0.0 0.0 0.00 0.00 0.00 77 1020.6
20260831000645 80 92 0.0 0.0 0.00 0.00 0.00 77 1020.5
20260831000145 81 92 0.0 1.0 0.00 0.00 0.00 76 1020.5
20260830235645 81 92 0.0 1.0 0.00 0.00 0.00 76 1020.5
20260830235145 81 92 0.0 2.0 0.00 0.00 0.00 75 1020.5
20260830234903 81 92 1.0 4.0 0.00 0.00 0.00 75 1020.5
20260830234145 82 92 1.0 4.0 0.00 0.00 0.00 75 1020.6
20260830233646 82 94 1.0 3.0 0.00 0.00 0.00 74 1020.6
20260830233146 82 94 1.0 3.0 0.00 0.00 0.00 74 1020.6
20260830232646 82 94 1.0 3.0 0.00 0.00 0.00 73 1020.6
20260830231859 83 94 1.0 3.0 0.00 0.00 0.00 73 1020.7
20260830231141 83 94 2.0 3.0 0.00 0.00 0.00 72 1020.6
20260830230641 83 91 2.0 3.0 0.00 0.00 0.00 72 1020.6
20260830225904 83 98 2.0 7.0 0.00 0.00 0.00 72 1020.6
20260830225140 83 102 2.0 7.0 0.00 0.00 0.00 71 1020.6
20260830224638 83 69 1.0 5.0 0.00 0.00 0.00 71 1020.5
20260830224139 83 69 2.0 6.0 0.00 0.00 0.00 71 1020.5
20260830223638 83 127 2.0 6.0 0.00 0.00 0.00 70 1020.5
20260830223138 84 90 3.0 6.0 0.00 0.00 0.00 71 1020.4
20260830222637 84 80 2.0 7.0 0.00 0.00 0.00 70 1020.4
20260830222131 84 65 2.0 7.0 0.00 0.00 0.00 70 1020.4
20260830221629 84 83 2.0 5.0 0.00 0.00 0.00 70 1020.4
20260830221353 84 99 2.0 5.0 0.00 0.00 0.00 69 1020.4
20260830220848 84 201 0.0 4.0 0.00 0.00 0.00 70 1020.3
20260830220125 84 65 1.0 3.0 0.00 0.00 0.00 69 1020.3
20260830215625 84 65 1.0 8.0 0.00 0.00 0.00 69 1020.4
20260830215125 84 77 1.0 8.0 0.00 0.00 0.00 69 1020.4
20260830214623 84 68 1.0 6.0 0.00 0.00 0.00 68 1020.5
20260830214121 85 67 1.0 6.0 0.00 0.00 0.00 69 1020.5
20260830213620 85 80 2.0 4.0 0.00 0.00 0.00 69 1020.4
20260830213120 85 81 2.0 8.0 0.00 0.00 0.00 68 1020.5
20260830212618 85 84 2.0 8.0 0.00 0.00 0.00 68 1020.5
20260830212118 85 63 1.0 3.0 0.00 0.00 0.00 68 1020.4
20260830211618 85 62 1.0 4.0 0.00 0.00 0.00 68 1020.5
20260830211116 85 125 2.0 8.0 0.00 0.00 0.00 67 1020.5
20260830210835 85 84 2.0 8.0 0.00 0.00 0.00 68 1020.6
20260830210112 85 136 2.0 6.0 0.00 0.00 0.00 67 1020.5
20260830205609 85 146 2.0 7.0 0.00 0.00 0.00 66 1020.6
20260830205109 86 86 2.0 7.0 0.00 0.00 0.00 67 1020.6
20260830204603 86 242 2.0 4.0 0.00 0.00 0.00 66 1020.5
20260830204057 86 110 1.0 4.0 0.00 0.00 0.00 67 1020.6
20260830203550 87 349 1.0 4.0 0.00 0.00 0.00 66 1020.6
20260830203045 87 345 2.0 7.0 0.00 0.00 0.00 66 1020.7
20260830202538 87 97 3.0 7.0 0.00 0.00 0.00 62 1020.7
20260830202255 88 118 3.0 7.0 0.00 0.00 0.00 64 1020.8
20260830201527 88 42 3.0 7.0 0.00 0.00 0.00 64 1020.8
20260830201243 88 70 2.0 8.0 0.00 0.00 0.00 65 1020.8
20260830200514 88 80 2.0 8.0 0.00 0.00 0.00 63 1021.0
20260830200009 88 96 2.0 6.0 0.00 0.00 0.00 65 1021.0
20260830195502 88 115 1.0 4.0 0.00 0.00 0.00 65 1021.1
20260830194957 87 196 1.0 6.0 0.00 0.00 0.00 66 1021.2
20260830194450 87 93 2.0 6.0 0.00 0.00 0.00 67 1021.3
20260830193945 87 76 2.0 6.0 0.00 0.00 0.00 69 1021.3
20260830193438 87 91 4.0 9.0 0.00 0.00 0.00 69 1021.4
20260830192933 86 63 4.0 9.0 0.00 0.00 0.00 69 1021.5
20260830192427 86 53 3.0 8.0 0.00 0.00 0.00 68 1021.6
20260830191920 86 105 3.0 8.0 0.00 0.00 0.00 69 1021.7
20260830191416 86 88 4.0 8.0 0.00 0.00 0.00 67 1021.8
20260830190908 86 126 2.0 9.0 0.00 0.00 0.00 70 1021.8
20260830190403 86 73 1.0 8.0 0.00 0.00 0.00 69 1021.9
20260830185857 85 119 2.0 6.0 0.00 0.00 0.00 69 1021.9
20260830185350 85 72 2.0 6.0 0.00 0.00 0.00 69 1022.0
20260830184845 85 103 4.0 9.0 0.00 0.00 0.00 70 1022.1
20260830184604 85 80 4.0 9.0 0.00 0.00 0.00 70 1022.2
20260830183832 85 103 1.0 6.0 0.00 0.00 0.00 72 1022.2
20260830183327 84 71 2.0 7.0 0.00 0.00 0.00 72 1022.3
20260830182821 84 69 3.0 7.0 0.00 0.00 0.00 72 1022.3
20260830182315 84 74 2.0 7.0 0.00 0.00 0.00 71 1022.4
20260830181808 84 160 2.0 5.0 0.00 0.00 0.00 71 1022.5
20260830181303 84 80 2.0 7.0 0.00 0.00 0.00 75 1022.6
20260830180757 84 97 2.0 7.0 0.00 0.00 0.00 74 1022.6
20260830180510 83 68 1.0 4.0 0.00 0.00 0.00 74 1022.7
20260830175746 83 136 2.0 8.0 0.00 0.00 0.00 73 1022.8
20260830174734 83 93 3.0 9.0 0.00 0.00 0.00 75 1023.1
20260830174227 83 67 4.0 9.0 0.00 0.00 0.00 76 1023.2
20260830173720 82 65 3.0 7.0 0.00 0.00 0.00 79 1023.1
20260830173215 82 244 2.0 7.0 0.00 0.00 0.00 79 1023.3
20260830172709 81 93 2.0 4.0 0.00 0.00 0.00 78 1023.3
20260830172434 81 106 2.0 4.0 0.00 0.00 0.00 77 1023.4
20260830171917 81 93 2.0 5.0 0.00 0.00 0.00 76 1023.5
20260830171150 82 140 2.0 8.0 0.00 0.00 0.00 77 1023.5
20260830170645 82 121 3.0 9.0 0.00 0.00 0.00 76 1023.5
20260830170140 82 84 3.0 9.0 0.00 0.00 0.00 75 1023.5
20260830165633 82 103 2.0 8.0 0.00 0.00 0.00 77 1023.5
20260830165127 81 231 3.0 8.0 0.00 0.00 0.00 79 1023.6
20260830164621 81 77 2.0 7.0 0.00 0.00 0.00 79 1023.7
20260830164114 81 101 3.0 8.0 0.00 0.00 0.00 78 1023.7
20260830163615 81 95 2.0 8.0 0.00 0.00 0.00 78 1023.7
20260830163115 80 120 2.0 7.0 0.00 0.00 0.00 80 1023.8
20260830162615 80 120 3.0 7.0 0.00 0.00 0.00 80 1023.8
20260830162336 80 89 3.0 7.0 0.00 0.00 0.00 82 1023.8
20260830161836 79 130 3.0 7.0 0.00 0.00 0.00 84 1023.7
20260830161111 79 93 2.0 7.0 0.00 0.00 0.00 86 1023.9
20260830160610 78 88 1.0 4.0 0.00 0.00 0.00 87 1023.9
20260830160107 77 85 0.0 2.0 0.00 0.00 0.00 86 1023.9
20260830155607 77 85 0.0 2.0 0.00 0.00 0.00 86 1024.0
20260830155108 77 85 0.0 2.0 0.00 0.00 0.00 86 1024.0
20260830154605 77 85 0.0 3.0 0.00 0.00 0.00 87 1024.0
20260830154327 77 85 0.0 3.0 0.00 0.00 0.00 88 1024.0
20260830153603 77 83 0.0 2.0 0.00 0.00 0.00 88 1024.0
20260830153103 76 83 0.0 2.0 0.00 0.00 0.00 87 1024.0
20260830152600 76 101 0.0 2.0 0.00 0.00 0.00 88 1023.9
20260830152324 76 96 0.0 3.0 0.00 0.00 0.00 87 1023.9
20260830151817 76 97 2.0 4.0 0.00 0.00 0.00 88 1023.9
20260830151057 76 98 2.0 5.0 0.00 0.00 0.00 89 1023.9
20260830150557 76 85 1.0 5.0 0.00 0.00 0.00 89 1023.9
20260830150050 76 98 1.0 4.0 0.00 0.00 0.00 89 1023.9
20260830145549 76 92 1.0 4.0 0.00 0.00 0.00 89 1023.8
20260830145049 76 95 1.0 4.0 0.00 0.00 0.00 89 1023.8
20260830144549 76 96 2.0 6.0 0.00 0.00 0.00 89 1023.8
20260830144049 76 100 3.0 8.0 0.00 0.00 0.00 89 1023.8
20260830143549 76 90 2.0 8.0 0.00 0.00 0.00 90 1023.8
20260830143050 76 94 2.0 7.0 0.00 0.00 0.00 90 1023.8
20260830142549 76 110 2.0 7.0 0.00 0.00 0.00 91 1023.8
20260830142049 75 86 2.0 7.0 0.00 0.00 0.00 92 1023.8
20260830141549 75 84 2.0 7.0 0.00 0.00 0.00 92 1023.9
20260830141048 75 74 2.0 7.0 0.00 0.00 0.00 92 1023.9
20260830140549 75 0 2.0 6.0 0.00 0.00 0.00 92 1023.8
20260830140047 75 92 1.0 6.0 0.00 0.00 0.00 92 1023.8
20260830135547 74 100 1.0 4.0 0.00 0.00 0.00 92 1023.9
20260830135045 74 90 1.0 3.0 0.00 0.00 0.00 92 1023.9
20260830134543 74 90 1.0 3.0 0.00 0.00 0.00 92 1024.0
20260830134259 74 92 0.0 2.0 0.00 0.00 0.00 92 1023.9
20260830133539 74 92 1.0 2.0 0.00 0.00 0.00 92 1023.9
20260830133039 74 92 1.0 4.0 0.00 0.00 0.00 92 1023.9
20260830132538 74 92 1.0 4.0 0.00 0.00 0.00 92 1023.9
20260830132038 74 89 1.0 3.0 0.00 0.00 0.00 92 1023.8
20260830131536 74 88 1.0 3.0 0.00 0.00 0.00 93 1023.8
20260830131036 74 90 1.0 3.0 0.00 0.00 0.00 93 1023.7
20260830130537 74 63 0.0 3.0 0.00 0.00 0.00 93 1023.7
20260830130037 74 62 0.0 2.0 0.00 0.00 0.00 92 1023.7
20260830125756 74 62 0.0 4.0 0.00 0.00 0.00 92 1023.6
20260830125032 74 62 0.0 4.0 0.00 0.00 0.00 92 1023.6
20260830124532 74 61 0.0 4.0 0.00 0.00 0.00 92 1023.6
20260830124033 74 61 1.0 4.0 0.00 0.00 0.00 93 1023.6
20260830123532 74 89 1.0 3.0 0.00 0.00 0.00 92 1023.7
20260830123032 74 29 0.0 2.0 0.00 0.00 0.00 93 1023.6
20260830122534 74 28 0.0 2.0 0.00 0.00 0.00 93 1023.6
20260830122034 74 28 0.0 2.0 0.00 0.00 0.00 93 1023.6
20260830121534 74 28 1.0 3.0 0.00 0.00 0.00 93 1023.7
20260830121035 74 49 1.0 3.0 0.00 0.00 0.00 93 1023.7
20260830120532 74 48 1.0 3.0 0.00 0.00 0.00 92 1023.8
20260830120300 74 82 1.0 3.0 0.00 0.00 0.00 93 1023.8
20260830115533 74 82 1.0 3.0 0.00 0.00 0.00 93 1023.6
20260830115033 74 84 1.0 3.0 0.00 0.00 0.00 93 1023.6
20260830114533 74 42 1.0 4.0 0.00 0.00 0.00 93 1023.5
20260830114034 74 111 1.0 4.0 0.00 0.00 0.00 93 1023.5
20260830113532 74 87 2.0 3.0 0.00 0.00 0.00 93 1023.5
20260830113033 74 88 1.0 3.0 0.00 0.00 0.00 93 1023.4
20260830112532 74 89 1.0 3.0 0.00 0.00 0.00 93 1023.3
20260830112032 74 89 0.0 3.0 0.00 0.00 0.00 93 1023.1
20260830111532 74 69 0.0 2.0 0.00 0.00 0.00 93 1023.1
20260830111250 74 69 0.0 1.0 0.00 0.00 0.00 93 1023.0
20260830110533 74 69 0.0 1.0 0.00 0.00 0.00 93 1022.9
20260830110031 74 69 0.0 1.0 0.00 0.00 0.00 93 1022.8
20260830105531 74 69 0.0 1.0 0.00 0.00 0.00 93 1022.7
20260830105029 74 69 0.0 1.0 0.00 0.00 0.00 93 1022.7
20260830104526 74 69 0.0 2.0 0.00 0.00 0.00 93 1022.6
20260830104026 74 69 0.0 2.0 0.00 0.00 0.00 93 1022.6
20260830103522 74 69 0.0 1.0 0.00 0.00 0.00 93 1022.5
20260830103022 74 69 0.0 1.0 0.00 0.00 0.00 93 1022.4
20260830102521 74 69 0.0 0.0 0.00 0.00 0.00 93 1022.5
20260830102018 74 69 0.0 1.0 0.00 0.00 0.00 93 1022.4
20260830101519 74 69 0.0 2.0 0.00 0.00 0.00 93 1022.4
20260830101018 74 69 0.0 2.0 0.00 0.00 0.00 93 1022.4
20260830100519 74 69 0.0 1.0 0.00 0.00 0.00 93 1022.2
20260830100017 74 69 0.0 2.0 0.00 0.00 0.00 93 1022.2
20260830095518 74 69 1.0 2.0 0.00 0.00 0.00 93 1022.1
20260830095243 74 69 0.0 1.0 0.00 0.00 0.00 93 1022.2
20260830094512 74 69 0.0 2.0 0.00 0.00 0.00 93 1022.1
20260830094010 74 69 0.0 2.0 0.00 0.00 0.00 93 1022.1
20260830093511 74 69 0.0 1.0 0.00 0.00 0.00 93 1022.0
20260830093010 74 69 0.0 1.0 0.00 0.00 0.00 93 1021.9
20260830092729 74 69 0.0 3.0 0.00 0.00 0.00 93 1021.9
20260830092008 74 69 0.0 3.0 0.00 0.00 0.00 93 1021.9
20260830091506 74 103 0.0 3.0 0.00 0.00 0.00 93 1022.0
20260830091004 74 103 0.0 3.0 0.00 0.00 0.00 93 1022.0
20260830090502 74 104 0.0 2.0 0.00 0.00 0.00 93 1022.0
20260830090000 74 104 0.0 2.0 0.00 0.00 0.00 93 1022.0
20260830085502 74 104 0.0 1.0 0.00 0.00 0.00 93 1021.9
20260830085001 74 104 0.0 1.0 0.00 0.00 0.00 93 1022.0
20260830084459 74 104 0.0 2.0 0.00 0.00 0.00 93 1022.0
20260830083958 74 104 1.0 2.0 0.00 0.00 0.00 93 1022.1
20260830083717 74 104 0.0 2.0 0.00 0.00 0.00 93 1022.1
20260830082946 74 104 0.0 2.0 0.00 0.00 0.00 92 1022.1
20260830082441 74 104 0.0 2.0 0.00 0.00 0.00 92 1022.2
20260830081934 74 104 0.0 1.0 0.00 0.00 0.00 93 1022.3
20260830081428 74 104 0.0 2.0 0.00 0.00 0.00 92 1022.2
20260830081148 74 104 0.0 2.0 0.00 0.00 0.00 92 1022.2
20260830080634 74 104 0.0 2.0 0.00 0.00 0.00 92 1022.2
20260830075910 74 104 0.0 3.0 0.00 0.00 0.00 92 1022.3
20260830075403 74 104 1.0 3.0 0.00 0.00 0.00 92 1022.3
20260830074858 74 104 0.0 2.0 0.00 0.00 0.00 92 1022.4
20260830074351 74 104 0.0 1.0 0.00 0.00 0.00 92 1022.3
20260830073846 74 104 0.0 2.0 0.00 0.00 0.00 92 1022.3
20260830073340 74 104 0.0 2.0 0.00 0.00 0.00 92 1022.4
20260830072834 74 104 0.0 2.0 0.00 0.00 0.00 92 1022.4
20260830072327 74 104 0.0 1.0 0.00 0.00 0.00 92 1022.4
20260830071822 74 104 1.0 2.0 0.00 0.00 0.00 92 1022.4
20260830071316 74 104 0.0 2.0 0.00 0.00 0.00 92 1022.5
20260830070810 74 104 0.0 2.0 0.00 0.00 0.00 92 1022.5
20260830070522 74 104 0.0 2.0 0.00 0.00 0.00 92 1022.5
20260830065758 74 104 0.0 0.0 0.00 0.00 0.00 92 1022.5
20260830065251 74 104 0.0 0.0 0.00 0.00 0.00 92 1022.4
20260830064747 74 104 0.0 1.0 0.00 0.00 0.00 91 1022.4
20260830064239 74 104 0.0 1.0 0.00 0.00 0.00 91 1022.5
20260830063735 74 104 0.0 1.0 0.00 0.00 0.00 91 1022.5
20260830063228 74 104 0.0 2.0 0.00 0.00 0.00 91 1022.5
20260830062941 74 104 1.0 2.0 0.00 0.00 0.00 91 1022.4
20260830062215 74 105 1.0 2.0 0.00 0.00 0.00 91 1022.4
20260830061709 74 105 1.0 3.0 0.00 0.00 0.00 91 1022.5
20260830061204 74 105 0.0 3.0 0.00 0.00 0.00 91 1022.6
20260830060658 74 105 0.0 0.0 0.00 0.00 0.00 90 1022.7
20260830060419 74 105 0.0 2.0 0.00 0.00 0.00 90 1022.6
20260830055645 74 105 0.0 2.0 0.00 0.00 0.00 90 1022.6
20260830055140 74 105 0.0 1.0 0.00 0.00 0.00 90 1022.7
20260830054853 74 105 0.0 1.0 0.00 0.00 0.00 90 1022.7
20260830054128 75 105 0.0 1.0 0.00 0.00 0.00 90 1022.7
20260830053622 75 105 0.0 1.0 0.00 0.00 0.00 90 1022.7
20260830053344 75 105 0.0 1.0 0.00 0.00 0.00 89 1022.6
20260830052833 75 105 0.0 1.0 0.00 0.00 0.00 90 1022.6
20260830052333 75 105 0.0 1.0 0.00 0.00 0.00 90 1022.6
20260830051823 75 105 0.0 1.0 0.00 0.00 0.00 89 1022.6
20260830051052 75 105 0.0 1.0 0.00 0.00 0.00 89 1022.5
20260830050545 75 105 0.0 1.0 0.00 0.00 0.00 89 1022.5
20260830050040 75 105 0.0 1.0 0.00 0.00 0.00 89 1022.5
20260830045801 75 105 0.0 1.0 0.00 0.00 0.00 89 1022.6
20260830044521 75 105 0.0 0.0 0.00 0.00 0.00 89 1022.5
20260830043510 76 105 0.0 0.0 0.00 0.00 0.00 89 1022.6
20260830043222 76 105 0.0 1.0 0.00 0.00 0.00 89 1022.6
20260830042458 76 105 0.0 2.0 0.00 0.00 0.00 89 1022.7
20260830041952 76 105 0.0 2.0 0.00 0.00 0.00 89 1022.8
20260830041446 76 105 0.0 3.0 0.00 0.00 0.00 88 1022.9
20260830040939 76 105 1.0 3.0 0.00 0.00 0.00 88 1022.8
20260830040434 76 105 0.0 3.0 0.00 0.00 0.00 88 1023.0
20260830035927 76 107 0.0 2.0 0.00 0.00 0.00 88 1022.9
20260830034916 76 107 0.0 3.0 0.00 0.00 0.00 88 1023.1
20260830034410 76 107 1.0 2.0 0.00 0.00 0.00 88 1023.1
20260830033904 76 107 1.0 6.0 0.00 0.00 0.00 88 1023.1
20260830033617 76 108 1.0 6.0 0.00 0.00 0.00 87 1023.0
20260830032851 77 82 1.0 3.0 0.00 0.00 0.00 87 1023.1
20260830032346 77 82 1.0 3.0 0.00 0.00 0.00 87 1023.0
20260830031839 77 80 0.0 2.0 0.00 0.00 0.00 86 1023.0
20260830031334 77 80 0.0 1.0 0.00 0.00 0.00 86 1023.0
20260830030827 77 80 0.0 1.0 0.00 0.00 0.00 86 1023.1
20260830030322 77 80 0.0 2.0 0.00 0.00 0.00 86 1023.0
20260830025816 77 80 0.0 2.0 0.00 0.00 0.00 86 1023.1
20260830025310 77 80 1.0 3.0 0.00 0.00 0.00 85 1023.0
20260830024804 77 80 1.0 3.0 0.00 0.00 0.00 85 1022.9
20260830024518 77 79 1.0 3.0 0.00 0.00 0.00 85 1022.9
20260830023753 78 79 1.0 4.0 0.00 0.00 0.00 85 1022.9
20260830023246 78 79 1.0 4.0 0.00 0.00 0.00 84 1022.8
20260830022740 78 87 1.0 2.0 0.00 0.00 0.00 84 1022.7
20260830022233 78 87 1.0 3.0 0.00 0.00 0.00 84 1022.6
20260830021728 78 78 1.0 3.0 0.00 0.00 0.00 84 1022.6
20260830021221 78 78 1.0 3.0 0.00 0.00 0.00 83 1022.5
20260830020210 78 111 1.0 4.0 0.00 0.00 0.00 82 1022.4
20260830015703 79 113 1.0 4.0 0.00 0.00 0.00 82 1022.2
20260830015158 79 78 1.0 4.0 0.00 0.00 0.00 81 1022.2
20260830014651 79 88 1.0 3.0 0.00 0.00 0.00 81 1022.2
20260830014146 79 89 1.0 4.0 0.00 0.00 0.00 81 1022.0
20260830013904 79 89 1.0 4.0 0.00 0.00 0.00 81 1022.0
20260830013354 79 82 0.0 2.0 0.00 0.00 0.00 80 1022.0
20260830012628 80 81 0.0 3.0 0.00 0.00 0.00 80 1022.0
20260830012122 80 81 0.0 3.0 0.00 0.00 0.00 79 1021.8
20260830011616 80 79 0.0 2.0 0.00 0.00 0.00 79 1021.6
20260830011111 80 79 0.0 2.0 0.00 0.01 0.00 79 1021.7
20260830010604 80 76 0.0 2.0 0.00 0.01 0.00 78 1021.5
20260830010058 80 76 1.0 3.0 0.00 0.01 0.00 78 1021.4